Time+03,TemperatureF,Dew PointF,Humidity,Sea Level PressureIn,VisibilityMPH,Wind Direction,Wind SpeedMPH,Gust SpeedMPH,PrecipitationIn,Events,Conditions,WindDirDegrees,DateUTC
12:00 AM,58,49,65,30.19,4,NW,6.9,,,,Haze,310,2014-01-08 21:00:00
12:00 AM,59.0,50.0,72,30.18,3.7,NW,6.9,-,N/A,,Unknown,310,2014-01-08 21:00:00
1:00 AM,57.2,48.2,72,30.18,3.7,NW,6.9,-,N/A,,Unknown,310,2014-01-08 22:00:00
2:00 AM,57.2,48.2,72,30.15,3.7,WNW,5.8,-,N/A,,Unknown,300,2014-01-08 23:00:00
3:00 AM,57,48,65,30.17,4,NW,5.8,,,,Haze,310,2014-01-09 00:00:00
3:00 AM,57.2,48.2,72,30.15,3.7,NW,5.8,-,N/A,,Unknown,310,2014-01-09 00:00:00
3:30 AM,57.2,48.2,72,30.15,4.3,NW,6.9,-,N/A,,Unknown,310,2014-01-09 00:30:00
4:00 AM,57.2,48.2,72,30.15,4.3,WNW,5.8,-,N/A,,Unknown,290,2014-01-09 01:00:00
4:30 AM,57.2,48.2,72,30.15,4.3,WNW,4.6,-,N/A,,Unknown,300,2014-01-09 01:30:00
5:00 AM,57.2,46.4,67,30.18,4.3,WNW,3.5,-,N/A,,Unknown,290,2014-01-09 02:00:00
5:30 AM,57.2,46.4,67,30.18,5.0,West,3.5,-,N/A,,Unknown,280,2014-01-09 02:30:00
6:00 AM,57,47,60,30.19,5,WNW,4.6,,,,Haze,300,2014-01-09 03:00:00
6:00 AM,57.2,46.4,67,30.18,5.0,WNW,4.6,-,N/A,,Unknown,300,2014-01-09 03:00:00
6:30 AM,57.2,46.4,67,30.18,3.7,West,3.5,-,N/A,,Unknown,270,2014-01-09 03:30:00
7:00 AM,57.2,46.4,67,30.21,3.7,Variable,2.3,-,N/A,,Unknown,0,2014-01-09 04:00:00
7:30 AM,59.0,48.2,67,30.21,5.0,WNW,4.6,-,N/A,,Unknown,300,2014-01-09 04:30:00
8:00 AM,59.0,46.4,63,30.24,5.0,West,5.8,-,N/A,,Unknown,280,2014-01-09 05:00:00
8:30 AM,60.8,48.2,63,30.24,5.0,WNW,4.6,-,N/A,,Unknown,300,2014-01-09 05:30:00
9:00 AM,62,49,51,30.27,5,NW,9.2,,,,Haze,310,2014-01-09 06:00:00
9:00 AM,62.6,48.2,59,30.24,5.0,NW,9.2,-,N/A,,Unknown,310,2014-01-09 06:00:00
9:30 AM,62.6,48.2,59,30.24,-9999.0,WNW,10.4,-,N/A,,Clear,300,2014-01-09 06:30:00
10:00 AM,64.4,48.2,56,30.24,-9999.0,WNW,10.4,-,N/A,,Clear,300,2014-01-09 07:00:00
10:30 AM,64.4,48.2,56,30.24,6.2,WNW,9.2,-,N/A,,Partly Cloudy,300,2014-01-09 07:30:00
11:00 AM,66.2,48.2,52,30.21,6.2,NW,8.1,-,N/A,,Partly Cloudy,310,2014-01-09 08:00:00
11:30 AM,66.2,48.2,52,30.18,6.2,WNW,6.9,-,N/A,,Partly Cloudy,300,2014-01-09 08:30:00
12:00 PM,67,48,40,30.19,7,NW,6.9,,,,Scattered Clouds,320,2014-01-09 09:00:00
12:00 PM,68.0,48.2,49,30.18,6.2,NW,6.9,-,N/A,,Partly Cloudy,320,2014-01-09 09:00:00
12:30 PM,68.0,46.4,46,30.15,6.2,NNW,6.9,-,N/A,,Partly Cloudy,330,2014-01-09 09:30:00
1:00 PM,68.0,46.4,46,30.15,6.2,North,9.2,-,N/A,,Partly Cloudy,360,2014-01-09 10:00:00
1:30 PM,68.0,48.2,49,30.12,6.2,North,9.2,-,N/A,,Scattered Clouds,350,2014-01-09 10:30:00
2:00 PM,68.0,46.4,46,30.12,-9999.0,North,10.4,-,N/A,,Clear,350,2014-01-09 11:00:00
2:30 PM,68.0,46.4,46,30.12,6.2,North,9.2,-,N/A,,Scattered Clouds,360,2014-01-09 11:30:00
3:00 PM,67,47,38,30.14,9,North,10.4,,,,Scattered Clouds,0,2014-01-09 12:00:00
3:00 PM,68.0,48.2,49,30.12,6.2,North,10.4,-,N/A,,Scattered Clouds,360,2014-01-09 12:00:00
4:00 PM,66.2,46.4,49,30.12,-9999.0,North,9.2,-,N/A,,Clear,10,2014-01-09 13:00:00
4:30 PM,66.2,48.2,52,30.12,-9999.0,North,9.2,-,N/A,,Clear,10,2014-01-09 13:30:00
5:00 PM,66.2,48.2,52,30.12,-9999.0,North,10.4,-,N/A,,Clear,350,2014-01-09 14:00:00
5:30 PM,64.4,48.2,56,30.15,-9999.0,NNW,8.1,-,N/A,,Clear,340,2014-01-09 14:30:00
6:00 PM,64,48,46,30.16,7,NNW,9.2,,,,,340,2014-01-09 15:00:00
6:00 PM,64.4,48.2,56,30.15,-9999.0,NNW,9.2,-,N/A,,Clear,340,2014-01-09 15:00:00
6:30 PM,62.6,48.2,59,30.15,-9999.0,NNW,11.5,-,N/A,,Clear,340,2014-01-09 15:30:00
7:00 PM,62.6,48.2,59,30.18,-9999.0,NNW,11.5,-,N/A,,Clear,340,2014-01-09 16:00:00
7:30 PM,60.8,48.2,63,30.18,-9999.0,NNW,9.2,-,N/A,,Clear,330,2014-01-09 16:30:00
8:00 PM,60.8,48.2,63,30.18,-9999.0,NW,6.9,-,N/A,,Clear,320,2014-01-09 17:00:00
8:30 PM,60.8,48.2,63,30.18,-9999.0,NW,6.9,-,N/A,,Clear,320,2014-01-09 17:30:00
9:00 PM,60.8,48.2,63,30.18,-9999.0,NW,5.8,-,N/A,,Clear,310,2014-01-09 18:00:00
9:30 PM,60.8,46.4,59,30.18,-9999.0,NNW,5.8,-,N/A,,Clear,330,2014-01-09 18:30:00
10:00 PM,60.8,48.2,63,30.18,-9999.0,NW,3.5,-,N/A,,Clear,310,2014-01-09 19:00:00
10:30 PM,60.8,48.2,63,30.18,-9999.0,WNW,3.5,-,N/A,,Clear,300,2014-01-09 19:30:00
11:00 PM,60.8,48.2,63,30.18,-9999.0,WNW,4.6,-,N/A,,Clear,300,2014-01-09 20:00:00
11:30 PM,59.0,48.2,67,30.18,-9999.0,WNW,5.8,-,N/A,,Clear,300,2014-01-09 20:30:00